Time,TemperatureF,DewpointF,PressureIn,WindDirection,WindDirectionDegrees,WindSpeedMPH,WindSpeedGustMPH,Humidity,HourlyPrecipIn,Conditions,Clouds,dailyrainin,SoftwareType,DateUTC
2013-06-15 00:00:00,60.8,58.8,30.01,NW,310,0.0,0.0,93,0.00,,,0.00,Wunderground v.1.15,2013-06-15 04:00:00,
2013-06-15 00:05:00,60.6,58.6,30.01,NW,309,0.0,0.0,93,0.00,,,0.00,Wunderground v.1.15,2013-06-15 04:05:00,
2013-06-15 00:15:00,60.4,58.4,30.02,NW,309,0.0,0.0,93,0.00,,,0.00,Wunderground v.1.15,2013-06-15 04:15:00,
2013-06-15 00:20:00,60.3,58.3,30.02,NW,309,0.0,0.0,93,0.00,,,0.00,Wunderground v.1.15,2013-06-15 04:20:00,
2013-06-15 00:25:00,60.2,58.2,30.02,NW,310,0.0,0.0,93,0.00,,,0.00,Wunderground v.1.15,2013-06-15 04:25:00,
2013-06-15 00:30:00,60.1,58.4,30.02,NW,309,0.0,0.0,94,0.00,,,0.00,Wunderground v.1.15,2013-06-15 04:30:00,
2013-06-15 00:35:00,60.0,58.3,30.03,NW,309,0.0,0.0,94,0.00,,,0.00,Wunderground v.1.15,2013-06-15 04:35:00,
2013-06-15 00:40:00,59.9,58.2,30.03,NW,310,0.0,0.0,94,0.00,,,0.00,Wunderground v.1.15,2013-06-15 04:40:00,
2013-06-15 00:45:00,59.9,58.2,30.03,NW,309,0.0,0.0,94,0.00,,,0.00,Wunderground v.1.15,2013-06-15 04:45:00,
2013-06-15 00:50:00,59.8,58.1,30.03,NW,309,0.0,0.0,94,0.00,,,0.00,Wunderground v.1.15,2013-06-15 04:50:00,
2013-06-15 00:55:00,59.7,58.0,30.03,NW,310,0.0,0.0,94,0.00,,,0.00,Wunderground v.1.15,2013-06-15 04:55:00,
2013-06-15 01:00:00,59.5,57.8,30.03,NW,309,0.0,0.0,94,0.00,,,0.00,Wunderground v.1.15,2013-06-15 05:00:00,
2013-06-15 01:06:00,59.4,57.7,30.03,NW,310,0.0,0.0,94,0.00,,,0.00,Wunderground v.1.15,2013-06-15 05:06:00,
2013-06-15 01:15:00,59.1,57.7,30.04,NW,310,0.0,0.0,95,0.00,,,0.00,Wunderground v.1.15,2013-06-15 05:15:00,
2013-06-15 01:20:00,59.0,57.6,30.04,NW,310,0.0,0.0,95,0.00,,,0.00,Wunderground v.1.15,2013-06-15 05:20:00,
2013-06-15 01:30:00,59.0,57.6,30.04,NW,309,0.0,0.0,95,0.00,,,0.00,Wunderground v.1.15,2013-06-15 05:30:00,
2013-06-15 01:35:00,59.0,57.6,30.04,NW,309,0.0,0.0,95,0.00,,,0.00,Wunderground v.1.15,2013-06-15 05:35:00,
2013-06-15 01:40:00,59.0,57.6,30.04,NW,309,0.0,0.0,95,0.00,,,0.00,Wunderground v.1.15,2013-06-15 05:40:00,
2013-06-15 01:45:00,59.0,57.6,30.05,NW,310,0.0,0.0,95,0.00,,,0.00,Wunderground v.1.15,2013-06-15 05:45:00,
2013-06-15 01:50:00,58.9,57.5,30.04,NW,309,0.0,0.0,95,0.00,,,0.00,Wunderground v.1.15,2013-06-15 05:50:00,
2013-06-15 02:00:00,58.7,57.3,30.04,NW,309,0.0,0.0,95,0.00,,,0.00,Wunderground v.1.15,2013-06-15 06:00:00,
2013-06-15 02:05:00,58.6,57.2,30.04,NW,309,0.0,0.0,95,0.00,,,0.00,Wunderground v.1.15,2013-06-15 06:05:00,
2013-06-15 02:15:00,58.4,57.0,30.04,NW,309,0.0,0.0,95,0.00,,,0.00,Wunderground v.1.15,2013-06-15 06:15:00,
2013-06-15 02:20:00,58.2,56.8,30.04,NW,309,0.0,0.0,95,0.00,,,0.00,Wunderground v.1.15,2013-06-15 06:20:00,
2013-06-15 02:25:00,58.2,56.8,30.04,NW,309,0.0,0.0,95,0.00,,,0.00,Wunderground v.1.15,2013-06-15 06:25:00,
2013-06-15 02:30:00,58.0,56.9,30.04,NW,310,0.0,0.0,96,0.00,,,0.00,Wunderground v.1.15,2013-06-15 06:30:00,
2013-06-15 02:35:00,58.0,56.9,30.04,NW,309,0.0,0.0,96,0.00,,,0.00,Wunderground v.1.15,2013-06-15 06:35:00,
2013-06-15 02:40:00,57.9,56.8,30.05,NW,309,0.0,0.0,96,0.00,,,0.00,Wunderground v.1.15,2013-06-15 06:40:00,
2013-06-15 02:50:00,57.8,56.7,30.05,NW,309,0.0,0.0,96,0.00,,,0.00,Wunderground v.1.15,2013-06-15 06:50:00,
2013-06-15 02:55:00,57.7,56.6,30.05,NW,309,0.0,0.0,96,0.00,,,0.00,Wunderground v.1.15,2013-06-15 06:55:00,
2013-06-15 03:00:00,57.8,56.7,30.05,NW,309,0.0,0.0,96,0.00,,,0.00,Wunderground v.1.15,2013-06-15 07:00:00,
2013-06-15 03:06:00,57.7,56.6,30.05,NW,309,0.0,0.0,96,0.00,,,0.00,Wunderground v.1.15,2013-06-15 07:06:00,
2013-06-15 03:15:00,57.6,56.5,30.05,NW,309,0.0,0.0,96,0.00,,,0.00,Wunderground v.1.15,2013-06-15 07:15:00,
2013-06-15 03:20:00,57.6,56.5,30.05,NW,310,0.0,0.0,96,0.00,,,0.00,Wunderground v.1.15,2013-06-15 07:20:00,
2013-06-15 03:30:00,57.3,56.2,30.05,NW,309,0.0,0.0,96,0.00,,,0.00,Wunderground v.1.15,2013-06-15 07:30:00,
2013-06-15 03:35:00,57.2,56.1,30.05,NW,309,0.0,0.0,96,0.00,,,0.00,Wunderground v.1.15,2013-06-15 07:35:00,
2013-06-15 03:40:00,57.2,56.1,30.05,NW,309,0.0,0.0,96,0.00,,,0.00,Wunderground v.1.15,2013-06-15 07:40:00,
2013-06-15 03:45:00,57.1,56.0,30.05,NW,310,0.0,0.0,96,0.00,,,0.00,Wunderground v.1.15,2013-06-15 07:45:00,
2013-06-15 03:50:00,57.0,55.9,30.05,NW,309,0.0,0.0,96,0.00,,,0.00,Wunderground v.1.15,2013-06-15 07:50:00,
2013-06-15 03:55:00,57.0,56.2,30.05,NW,309,0.0,0.0,97,0.00,,,0.00,Wunderground v.1.15,2013-06-15 07:55:00,
2013-06-15 04:05:00,56.8,56.0,30.04,NW,310,0.0,0.0,97,0.00,,,0.00,Wunderground v.1.15,2013-06-15 08:05:00,
2013-06-15 04:15:00,56.8,56.0,30.04,NW,309,0.0,0.0,97,0.00,,,0.00,Wunderground v.1.15,2013-06-15 08:15:00,
2013-06-15 04:20:00,56.8,56.0,30.04,NW,309,0.0,0.0,97,0.00,,,0.00,Wunderground v.1.15,2013-06-15 08:20:00,
2013-06-15 04:25:00,56.7,55.9,30.04,NW,309,0.0,0.0,97,0.00,,,0.00,Wunderground v.1.15,2013-06-15 08:25:00,
2013-06-15 04:30:00,56.7,55.9,30.04,NW,309,0.0,0.0,97,0.00,,,0.00,Wunderground v.1.15,2013-06-15 08:30:00,
2013-06-15 04:35:00,56.6,55.8,30.04,NW,309,0.0,0.0,97,0.00,,,0.00,Wunderground v.1.15,2013-06-15 08:35:00,
2013-06-15 04:45:00,56.5,55.7,30.04,NW,309,0.0,0.0,97,0.00,,,0.00,Wunderground v.1.15,2013-06-15 08:45:00,
2013-06-15 04:50:00,56.4,55.6,30.04,NW,309,0.0,0.0,97,0.00,,,0.00,Wunderground v.1.15,2013-06-15 08:50:00,
2013-06-15 04:55:00,56.3,55.5,30.04,NW,309,0.0,0.0,97,0.00,,,0.00,Wunderground v.1.15,2013-06-15 08:55:00,
2013-06-15 05:00:00,56.2,55.4,30.05,NW,309,0.0,0.0,97,0.00,,,0.00,Wunderground v.1.15,2013-06-15 09:00:00,
2013-06-15 05:06:00,56.2,55.4,30.05,NW,309,0.0,0.0,97,0.00,,,0.00,Wunderground v.1.15,2013-06-15 09:06:00,
2013-06-15 05:15:00,56.1,55.3,30.05,NW,309,0.0,0.0,97,0.00,,,0.00,Wunderground v.1.15,2013-06-15 09:15:00,
2013-06-15 05:20:00,56.1,55.3,30.05,NW,310,0.0,0.0,97,0.00,,,0.00,Wunderground v.1.15,2013-06-15 09:20:00,
2013-06-15 05:30:00,56.0,55.2,30.05,NW,309,0.0,0.0,97,0.00,,,0.00,Wunderground v.1.15,2013-06-15 09:30:00,
2013-06-15 05:35:00,56.0,55.2,30.05,NW,310,0.0,0.0,97,0.00,,,0.00,Wunderground v.1.15,2013-06-15 09:35:00,
2013-06-15 05:40:00,55.9,55.1,30.06,NW,309,0.0,0.0,97,0.00,,,0.00,Wunderground v.1.15,2013-06-15 09:40:00,
2013-06-15 05:45:00,55.8,55.0,30.07,NW,309,0.0,0.0,97,0.00,,,0.00,Wunderground v.1.15,2013-06-15 09:45:00,
2013-06-15 05:50:00,55.8,55.0,30.07,NW,309,0.0,0.0,97,0.00,,,0.00,Wunderground v.1.15,2013-06-15 09:50:00,
2013-06-15 05:55:00,55.7,54.9,30.07,NW,310,0.0,0.0,97,0.00,,,0.00,Wunderground v.1.15,2013-06-15 09:55:00,
2013-06-15 06:05:00,55.6,54.8,30.07,NW,310,0.0,0.0,97,0.00,,,0.00,Wunderground v.1.15,2013-06-15 10:05:00,
2013-06-15 06:15:00,55.6,54.8,30.08,NW,309,0.0,0.0,97,0.00,,,0.00,Wunderground v.1.15,2013-06-15 10:15:00,
2013-06-15 06:20:00,55.6,54.8,30.08,NW,309,0.0,0.0,97,0.00,,,0.00,Wunderground v.1.15,2013-06-15 10:20:00,
2013-06-15 06:25:00,55.7,54.9,30.09,NW,310,0.0,0.0,97,0.00,,,0.00,Wunderground v.1.15,2013-06-15 10:25:00,
2013-06-15 06:30:00,55.7,54.9,30.09,NW,309,0.0,0.0,97,0.00,,,0.00,Wunderground v.1.15,2013-06-15 10:30:00,
2013-06-15 06:35:00,55.7,54.9,30.09,NW,310,0.0,0.0,97,0.00,,,0.00,Wunderground v.1.15,2013-06-15 10:35:00,
2013-06-15 06:45:00,55.9,55.3,30.09,NW,309,0.0,0.0,98,0.00,,,0.00,Wunderground v.1.15,2013-06-15 10:45:00,
2013-06-15 06:50:00,55.9,55.3,30.09,NW,309,0.0,0.0,98,0.00,,,0.00,Wunderground v.1.15,2013-06-15 10:50:00,
2013-06-15 06:55:00,56.0,55.4,30.09,NW,309,0.0,0.0,98,0.00,,,0.00,Wunderground v.1.15,2013-06-15 10:55:00,
2013-06-15 07:00:00,56.3,55.7,30.09,NW,309,0.0,0.0,98,0.00,,,0.00,Wunderground v.1.15,2013-06-15 11:00:00,
2013-06-15 07:06:00,56.6,56.0,30.09,NW,310,0.0,0.0,98,0.00,,,0.00,Wunderground v.1.15,2013-06-15 11:06:00,
2013-06-15 07:15:00,56.9,56.3,30.10,NW,309,0.0,0.0,98,0.00,,,0.00,Wunderground v.1.15,2013-06-15 11:15:00,
2013-06-15 07:20:00,57.2,56.6,30.11,NW,310,0.0,0.0,98,0.00,,,0.00,Wunderground v.1.15,2013-06-15 11:20:00,
2013-06-15 07:25:00,57.7,57.4,30.11,NW,309,0.0,0.0,99,0.00,,,0.00,Wunderground v.1.15,2013-06-15 11:25:00,
2013-06-15 07:35:00,59.0,58.7,30.11,NW,309,0.0,0.0,99,0.00,,,0.00,Wunderground v.1.15,2013-06-15 11:35:00,
2013-06-15 07:40:00,59.1,58.8,30.11,NW,309,0.0,0.0,99,0.00,,,0.00,Wunderground v.1.15,2013-06-15 11:40:00,
2013-06-15 07:45:00,59.8,59.5,30.11,NW,309,0.0,0.0,99,0.00,,,0.00,Wunderground v.1.15,2013-06-15 11:45:00,
2013-06-15 07:50:00,60.5,60.2,30.11,NW,309,0.0,0.0,99,0.00,,,0.00,Wunderground v.1.15,2013-06-15 11:50:00,
2013-06-15 07:55:00,60.9,60.9,30.11,NW,310,0.0,0.0,100,0.00,,,0.00,Wunderground v.1.15,2013-06-15 11:55:00,
2013-06-15 08:05:00,61.7,61.4,30.11,NW,309,0.0,0.0,99,0.00,,,0.00,Wunderground v.1.15,2013-06-15 12:05:00,
2013-06-15 08:15:00,62.4,62.1,30.11,NW,309,0.0,0.0,99,0.00,,,0.00,Wunderground v.1.15,2013-06-15 12:15:00,
2013-06-15 08:20:00,62.9,62.6,30.11,SW,228,0.0,0.0,99,0.00,,,0.00,Wunderground v.1.15,2013-06-15 12:20:00,
2013-06-15 08:25:00,63.3,63.0,30.11,SW,228,0.0,0.0,99,0.00,,,0.00,Wunderground v.1.15,2013-06-15 12:25:00,
2013-06-15 08:30:00,63.7,63.1,30.11,SW,228,0.0,0.0,98,0.00,,,0.00,Wunderground v.1.15,2013-06-15 12:30:00,
2013-06-15 08:35:00,64.1,63.5,30.11,SW,228,0.0,0.0,98,0.00,,,0.00,Wunderground v.1.15,2013-06-15 12:35:00,
2013-06-15 08:40:00,64.5,63.6,30.11,SW,215,0.0,0.0,97,0.00,,,0.00,Wunderground v.1.15,2013-06-15 12:40:00,
2013-06-15 08:50:00,65.5,63.7,30.11,WNW,285,0.0,0.0,94,0.00,,,0.00,Wunderground v.1.15,2013-06-15 12:50:00,
2013-06-15 08:55:00,66.2,63.8,30.11,West,273,0.0,0.0,92,0.00,,,0.00,Wunderground v.1.15,2013-06-15 12:55:00,
2013-06-15 09:00:00,66.8,63.8,30.12,SSE,165,0.0,0.0,90,0.00,,,0.00,Wunderground v.1.15,2013-06-15 13:00:00,
2013-06-15 09:05:00,67.5,63.8,30.12,SW,224,0.0,0.0,88,0.00,,,0.00,Wunderground v.1.15,2013-06-15 13:05:00,
2013-06-15 09:15:00,68.7,63.7,30.12,SSW,213,0.0,0.0,84,0.00,,,0.00,Wunderground v.1.15,2013-06-15 13:15:00,
2013-06-15 09:20:00,69.4,63.3,30.12,SSE,155,0.0,0.0,81,0.00,,,0.00,Wunderground v.1.15,2013-06-15 13:20:00,
2013-06-15 09:25:00,70.0,63.5,30.12,NNE,24,1.0,1.0,80,0.00,,,0.00,Wunderground v.1.15,2013-06-15 13:25:00,
2013-06-15 09:35:00,71.0,63.4,30.12,SW,216,1.0,1.0,77,0.00,,,0.00,Wunderground v.1.15,2013-06-15 13:35:00,
2013-06-15 09:40:00,71.4,63.1,30.12,SW,215,1.0,1.0,75,0.00,,,0.00,Wunderground v.1.15,2013-06-15 13:40:00,
2013-06-15 09:45:00,71.8,63.4,30.12,SSW,208,1.0,1.0,75,0.00,,,0.00,Wunderground v.1.15,2013-06-15 13:45:00,
2013-06-15 09:50:00,72.0,63.6,30.12,WSW,239,0.0,2.0,75,0.00,,,0.00,Wunderground v.1.15,2013-06-15 13:50:00,
2013-06-15 09:55:00,72.3,63.2,30.12,SW,226,1.0,2.0,73,0.00,,,0.00,Wunderground v.1.15,2013-06-15 13:55:00,
2013-06-15 10:00:00,72.5,63.4,30.12,NE,53,1.0,1.0,73,0.00,,,0.00,Wunderground v.1.15,2013-06-15 14:00:00,
2013-06-15 10:05:00,72.8,63.2,30.12,SSW,209,1.0,1.0,72,0.00,,,0.00,Wunderground v.1.15,2013-06-15 14:05:00,
2013-06-15 10:15:00,73.2,63.6,30.12,WNW,295,1.0,1.0,72,0.00,,,0.00,Wunderground v.1.15,2013-06-15 14:15:00,
2013-06-15 10:20:00,73.5,63.9,30.12,South,178,1.0,2.0,72,0.00,,,0.00,Wunderground v.1.15,2013-06-15 14:20:00,
2013-06-15 10:25:00,73.8,63.8,30.11,SSW,212,1.0,2.0,71,0.00,,,0.00,Wunderground v.1.15,2013-06-15 14:25:00,
2013-06-15 10:30:00,74.2,64.6,30.11,SSW,194,1.0,1.0,72,0.00,,,0.00,Wunderground v.1.15,2013-06-15 14:30:00,
2013-06-15 10:35:00,74.3,63.9,30.11,SSW,209,1.0,1.0,70,0.00,,,0.00,Wunderground v.1.15,2013-06-15 14:35:00,
2013-06-15 10:40:00,74.3,63.9,30.11,SSW,205,1.0,1.0,70,0.00,,,0.00,Wunderground v.1.15,2013-06-15 14:40:00,
2013-06-15 10:50:00,74.4,64.4,30.11,WNW,302,1.0,1.0,71,0.00,,,0.00,Wunderground v.1.15,2013-06-15 14:50:00,
2013-06-15 10:55:00,74.7,64.3,30.11,West,265,1.0,1.0,70,0.00,,,0.00,Wunderground v.1.15,2013-06-15 14:55:00,
2013-06-15 11:00:00,74.9,64.5,30.11,West,273,0.0,1.0,70,0.00,,,0.00,Wunderground v.1.15,2013-06-15 15:00:00,
2013-06-15 11:05:00,75.2,64.7,30.11,SW,227,0.0,1.0,70,0.00,,,0.00,Wunderground v.1.15,2013-06-15 15:05:00,
2013-06-15 11:15:00,75.7,64.8,30.11,SSE,150,1.0,1.0,69,0.00,,,0.00,Wunderground v.1.15,2013-06-15 15:15:00,
2013-06-15 11:20:00,75.8,64.9,30.11,SSW,212,1.0,1.0,69,0.00,,,0.00,Wunderground v.1.15,2013-06-15 15:20:00,
2013-06-15 11:25:00,76.1,65.2,30.11,SSW,205,1.0,1.0,69,0.00,,,0.00,Wunderground v.1.15,2013-06-15 15:25:00,
2013-06-15 11:30:00,76.4,65.9,30.11,SW,233,0.0,0.0,70,0.00,,,0.00,Wunderground v.1.15,2013-06-15 15:30:00,
2013-06-15 11:35:00,76.7,65.8,30.11,SW,227,0.0,0.0,69,0.00,,,0.00,Wunderground v.1.15,2013-06-15 15:35:00,
2013-06-15 11:45:00,77.4,65.6,30.11,NW,316,1.0,1.0,67,0.00,,,0.00,Wunderground v.1.15,2013-06-15 15:45:00,
2013-06-15 11:50:00,77.6,65.8,30.11,South,190,1.0,1.0,67,0.00,,,0.00,Wunderground v.1.15,2013-06-15 15:50:00,
2013-06-15 11:55:00,77.7,65.0,30.10,SSE,152,1.0,1.0,65,0.00,,,0.00,Wunderground v.1.15,2013-06-15 15:55:00,
2013-06-15 12:00:00,77.9,65.2,30.10,WSW,248,1.0,2.0,65,0.00,,,0.00,Wunderground v.1.15,2013-06-15 16:00:00,
2013-06-15 12:05:00,78.4,66.5,30.10,WNW,283,1.0,4.0,67,0.00,,,0.00,Wunderground v.1.15,2013-06-15 16:05:00,
2013-06-15 12:15:00,79.1,65.9,30.10,SE,140,1.0,1.0,64,0.00,,,0.00,Wunderground v.1.15,2013-06-15 16:15:00,
2013-06-15 12:25:00,79.6,65.9,30.10,NW,316,1.0,3.0,63,0.00,,,0.00,Wunderground v.1.15,2013-06-15 16:25:00,
2013-06-15 12:30:00,79.8,65.2,30.10,SE,142,2.0,2.0,61,0.00,,,0.00,Wunderground v.1.15,2013-06-15 16:30:00,
2013-06-15 12:35:00,79.9,65.2,30.10,NW,312,2.0,2.0,61,0.00,,,0.00,Wunderground v.1.15,2013-06-15 16:35:00,
2013-06-15 12:40:00,79.9,64.3,30.10,WSW,250,2.0,2.0,59,0.00,,,0.00,Wunderground v.1.15,2013-06-15 16:40:00,
2013-06-15 12:45:00,80.0,65.3,30.10,South,190,2.0,2.0,61,0.00,,,0.00,Wunderground v.1.15,2013-06-15 16:45:00,
2013-06-15 12:55:00,80.2,66.0,30.09,South,178,1.0,2.0,62,0.00,,,0.00,Wunderground v.1.15,2013-06-15 16:55:00,
2013-06-15 13:00:00,80.7,66.0,30.09,NNW,335,1.0,1.0,61,0.00,,,0.00,Wunderground v.1.15,2013-06-15 17:00:00,
2013-06-15 13:05:00,81.1,66.8,30.09,SW,223,1.0,2.0,62,0.00,,,0.00,Wunderground v.1.15,2013-06-15 17:05:00,
2013-06-15 13:15:00,81.3,65.6,30.09,WSW,252,1.0,1.0,59,0.00,,,0.00,Wunderground v.1.15,2013-06-15 17:15:00,
2013-06-15 13:20:00,81.4,65.7,30.08,SW,214,1.0,1.0,59,0.00,,,0.00,Wunderground v.1.15,2013-06-15 17:20:00,
2013-06-15 13:25:00,81.6,65.4,30.08,SSW,192,1.0,4.0,58,0.00,,,0.00,Wunderground v.1.15,2013-06-15 17:25:00,
2013-06-15 13:30:00,81.9,65.2,30.08,NW,315,2.0,2.0,57,0.00,,,0.00,Wunderground v.1.15,2013-06-15 17:30:00,
2013-06-15 13:40:00,82.0,65.3,30.08,SE,142,1.0,1.0,57,0.00,,,0.00,Wunderground v.1.15,2013-06-15 17:40:00,
2013-06-15 13:45:00,82.2,66.0,30.08,WSW,244,1.0,1.0,58,0.00,,,0.00,Wunderground v.1.15,2013-06-15 17:45:00,
2013-06-15 13:50:00,82.6,65.8,30.08,ENE,77,1.0,3.0,57,0.00,,,0.00,Wunderground v.1.15,2013-06-15 17:50:00,
2013-06-15 13:55:00,82.7,65.4,30.08,SSW,209,1.0,3.0,56,0.00,,,0.00,Wunderground v.1.15,2013-06-15 17:55:00,
2013-06-15 14:00:00,82.7,65.4,30.07,SSW,197,1.0,1.0,56,0.00,,,0.00,Wunderground v.1.15,2013-06-15 18:00:00,
2013-06-15 14:06:00,82.5,64.7,30.07,SW,214,1.0,1.0,55,0.00,,,0.00,Wunderground v.1.15,2013-06-15 18:06:00,
2013-06-15 14:15:00,82.2,64.9,30.07,South,188,1.0,2.0,56,0.00,,,0.00,Wunderground v.1.15,2013-06-15 18:15:00,
2013-06-15 14:20:00,82.0,64.8,30.07,South,188,0.0,0.0,56,0.00,,,0.00,Wunderground v.1.15,2013-06-15 18:20:00,
2013-06-15 14:30:00,82.0,62.1,30.07,SSW,196,0.0,2.0,51,0.00,,,0.00,Wunderground v.1.15,2013-06-15 18:30:00,
2013-06-15 14:35:00,82.1,61.6,30.07,SW,236,1.0,2.0,50,0.00,,,0.00,Wunderground v.1.15,2013-06-15 18:35:00,
2013-06-15 14:40:00,82.7,63.8,30.07,SSE,168,1.0,4.0,53,0.00,,,0.00,Wunderground v.1.15,2013-06-15 18:40:00,
2013-06-15 14:45:00,83.1,64.2,30.07,NNW,331,1.0,5.0,53,0.00,,,0.00,Wunderground v.1.15,2013-06-15 18:45:00,
2013-06-15 14:50:00,83.3,63.8,30.06,South,174,2.0,2.0,52,0.00,,,0.00,Wunderground v.1.15,2013-06-15 18:50:00,
2013-06-15 15:00:00,83.1,64.2,30.07,WNW,295,1.0,1.0,53,0.00,,,0.00,Wunderground v.1.15,2013-06-15 19:00:00,
2013-06-15 15:05:00,83.1,63.1,30.07,WNW,298,0.0,1.0,51,0.00,,,0.00,Wunderground v.1.15,2013-06-15 19:05:00,
2013-06-15 15:15:00,83.9,64.4,30.06,West,280,1.0,4.0,52,0.00,,,0.00,Wunderground v.1.15,2013-06-15 19:15:00,
2013-06-15 15:20:00,84.1,64.0,30.06,SSE,151,1.0,1.0,51,0.00,,,0.00,Wunderground v.1.15,2013-06-15 19:20:00,
2013-06-15 15:25:00,83.8,63.2,30.06,SW,234,1.0,1.0,50,0.00,,,0.00,Wunderground v.1.15,2013-06-15 19:25:00,
2013-06-15 15:30:00,83.4,63.4,30.06,SW,227,1.0,1.0,51,0.00,,,0.00,Wunderground v.1.15,2013-06-15 19:30:00,
2013-06-15 15:35:00,83.3,64.4,30.06,North,11,1.0,1.0,53,0.00,,,0.00,Wunderground v.1.15,2013-06-15 19:35:00,
2013-06-15 15:45:00,83.6,63.0,30.06,SSW,206,1.0,1.0,50,0.00,,,0.00,Wunderground v.1.15,2013-06-15 19:45:00,
2013-06-15 15:50:00,83.6,63.6,30.06,SSE,149,1.0,1.0,51,0.00,,,0.00,Wunderground v.1.15,2013-06-15 19:50:00,
2013-06-15 15:55:00,84.0,64.5,30.06,WSW,246,1.0,1.0,52,0.00,,,0.00,Wunderground v.1.15,2013-06-15 19:55:00,
2013-06-15 16:00:00,84.3,63.6,30.06,East,101,1.0,1.0,50,0.00,,,0.00,Wunderground v.1.15,2013-06-15 20:00:00,
2013-06-15 16:06:00,84.6,63.3,30.06,WNW,293,1.0,1.0,49,0.00,,,0.00,Wunderground v.1.15,2013-06-15 20:06:00,
2013-06-15 16:15:00,84.4,64.3,30.06,WNW,301,1.0,4.0,51,0.00,,,0.00,Wunderground v.1.15,2013-06-15 20:15:00,
2013-06-15 16:20:00,84.0,63.4,30.06,SSE,167,1.0,1.0,50,0.00,,,0.00,Wunderground v.1.15,2013-06-15 20:20:00,
2013-06-15 16:25:00,83.8,64.3,30.06,South,178,1.0,2.0,52,0.00,,,0.00,Wunderground v.1.15,2013-06-15 20:25:00,
2013-06-15 16:35:00,84.5,63.8,30.06,South,180,1.0,1.0,50,0.00,,,0.00,Wunderground v.1.15,2013-06-15 20:35:00,
2013-06-15 16:40:00,85.0,65.4,30.06,South,190,0.0,0.0,52,0.00,,,0.00,Wunderground v.1.15,2013-06-15 20:40:00,
2013-06-15 16:45:00,85.6,64.8,30.06,NNE,33,1.0,1.0,50,0.00,,,0.00,Wunderground v.1.15,2013-06-15 20:45:00,
2013-06-15 16:50:00,85.6,64.8,30.06,SSE,155,1.0,1.0,50,0.00,,,0.00,Wunderground v.1.15,2013-06-15 20:50:00,
2013-06-15 16:55:00,85.0,65.4,30.06,SSE,155,1.0,1.0,52,0.00,,,0.00,Wunderground v.1.15,2013-06-15 20:55:00,
2013-06-15 17:05:00,84.7,64.0,30.06,ESE,104,1.0,2.0,50,0.00,,,0.00,Wunderground v.1.15,2013-06-15 21:05:00,
2013-06-15 17:15:00,85.2,65.0,30.06,South,190,1.0,1.0,51,0.00,,,0.00,Wunderground v.1.15,2013-06-15 21:15:00,
2013-06-15 17:20:00,85.1,64.4,30.06,South,180,1.0,1.0,50,0.00,,,0.00,Wunderground v.1.15,2013-06-15 21:20:00,
2013-06-15 17:25:00,84.6,64.5,30.06,SE,132,1.0,1.0,51,0.00,,,0.00,Wunderground v.1.15,2013-06-15 21:25:00,
2013-06-15 17:30:00,84.0,65.6,30.05,SE,136,0.0,1.0,54,0.00,,,0.00,Wunderground v.1.15,2013-06-15 21:30:00,
2013-06-15 17:35:00,84.0,65.6,30.05,SSE,155,0.0,1.0,54,0.00,,,0.00,Wunderground v.1.15,2013-06-15 21:35:00,
2013-06-15 17:40:00,84.1,65.7,30.05,SE,136,0.0,1.0,54,0.00,,,0.00,Wunderground v.1.15,2013-06-15 21:40:00,
2013-06-15 17:50:00,84.2,65.2,30.05,SSE,156,0.0,2.0,53,0.00,,,0.00,Wunderground v.1.15,2013-06-15 21:50:00,
2013-06-15 17:55:00,84.7,66.2,30.05,SSE,157,0.0,2.0,54,0.00,,,0.00,Wunderground v.1.15,2013-06-15 21:55:00,
2013-06-15 18:00:00,85.0,65.4,30.05,SSE,157,0.0,0.0,52,0.00,,,0.00,Wunderground v.1.15,2013-06-15 22:00:00,
2013-06-15 18:06:00,85.1,64.9,30.05,NNE,12,1.0,1.0,51,0.00,,,0.00,Wunderground v.1.15,2013-06-15 22:06:00,
2013-06-15 18:15:00,84.1,67.2,30.05,NW,312,0.0,1.0,57,0.00,,,0.00,Wunderground v.1.15,2013-06-15 22:15:00,
2013-06-15 18:20:00,83.7,66.3,30.05,WSW,252,0.0,0.0,56,0.00,,,0.00,Wunderground v.1.15,2013-06-15 22:20:00,
2013-06-15 18:25:00,83.3,68.4,30.05,WSW,252,0.0,0.0,61,0.00,,,0.00,Wunderground v.1.15,2013-06-15 22:25:00,
2013-06-15 18:35:00,83.4,67.1,30.05,WSW,252,0.0,0.0,58,0.00,,,0.00,Wunderground v.1.15,2013-06-15 22:35:00,
2013-06-15 18:40:00,83.6,66.2,30.05,WSW,252,0.0,0.0,56,0.00,,,0.00,Wunderground v.1.15,2013-06-15 22:40:00,
2013-06-15 18:45:00,83.9,67.0,30.05,WSW,252,0.0,0.0,57,0.00,,,0.00,Wunderground v.1.15,2013-06-15 22:45:00,
2013-06-15 18:50:00,83.9,68.5,30.05,WSW,252,0.0,0.0,60,0.00,,,0.00,Wunderground v.1.15,2013-06-15 22:50:00,
2013-06-15 18:55:00,84.1,68.2,30.05,WSW,252,0.0,0.0,59,0.00,,,0.00,Wunderground v.1.15,2013-06-15 22:55:00,
2013-06-15 19:05:00,83.6,68.7,30.05,WSW,252,0.0,0.0,61,0.00,,,0.00,Wunderground v.1.15,2013-06-15 23:05:00,
2013-06-15 19:15:00,82.5,69.5,30.05,WSW,252,0.0,0.0,65,0.00,,,0.00,Wunderground v.1.15,2013-06-15 23:15:00,
2013-06-15 19:20:00,81.8,69.8,30.06,WSW,252,0.0,0.0,67,0.00,,,0.00,Wunderground v.1.15,2013-06-15 23:20:00,
2013-06-15 19:25:00,81.1,69.5,30.06,WSW,252,0.0,0.0,68,0.00,,,0.00,Wunderground v.1.15,2013-06-15 23:25:00,
2013-06-15 19:30:00,80.5,69.4,30.06,SW,228,0.0,0.0,69,0.00,,,0.00,Wunderground v.1.15,2013-06-15 23:30:00,
2013-06-15 19:35:00,80.0,68.9,30.06,SW,228,0.0,0.0,69,0.00,,,0.00,Wunderground v.1.15,2013-06-15 23:35:00,
2013-06-15 19:40:00,79.6,69.0,30.06,SW,228,0.0,0.0,70,0.00,,,0.00,Wunderground v.1.15,2013-06-15 23:40:00,
2013-06-15 19:50:00,78.7,68.9,30.06,SW,228,0.0,0.0,72,0.00,,,0.00,Wunderground v.1.15,2013-06-15 23:50:00,
2013-06-15 19:55:00,78.2,68.8,30.06,SW,228,0.0,0.0,73,0.00,,,0.00,Wunderground v.1.15,2013-06-15 23:55:00,
2013-06-15 20:00:00,77.8,68.8,30.06,SW,228,0.0,0.0,74,0.00,,,0.00,Wunderground v.1.15,2013-06-16 00:00:00,
2013-06-15 20:05:00,77.2,68.3,30.05,SW,228,0.0,0.0,74,0.00,,,0.00,Wunderground v.1.15,2013-06-16 00:05:00,
2013-06-15 20:15:00,76.4,67.9,30.05,SW,228,0.0,0.0,75,0.00,,,0.00,Wunderground v.1.15,2013-06-16 00:15:00,
2013-06-15 20:20:00,76.0,67.9,30.05,SW,228,0.0,0.0,76,0.00,,,0.00,Wunderground v.1.15,2013-06-16 00:20:00,
2013-06-15 20:25:00,75.6,67.9,30.05,SW,228,0.0,0.0,77,0.00,,,0.00,Wunderground v.1.15,2013-06-16 00:25:00,
2013-06-15 20:35:00,74.8,67.1,30.06,SW,228,0.0,0.0,77,0.00,,,0.00,Wunderground v.1.15,2013-06-16 00:35:00,
2013-06-15 20:40:00,74.4,66.7,30.05,SW,228,0.0,0.0,77,0.00,,,0.00,Wunderground v.1.15,2013-06-16 00:40:00,
2013-06-15 20:45:00,74.1,66.8,30.06,SW,228,0.0,0.0,78,0.00,,,0.00,Wunderground v.1.15,2013-06-16 00:45:00,
2013-06-15 20:50:00,73.7,66.4,30.06,SW,228,0.0,0.0,78,0.00,,,0.00,Wunderground v.1.15,2013-06-16 00:50:00,
2013-06-15 20:55:00,73.2,66.3,30.06,SW,228,0.0,0.0,79,0.00,,,0.00,Wunderground v.1.15,2013-06-16 00:55:00,
2013-06-15 21:05:00,72.5,66.0,30.06,SW,228,0.0,0.0,80,0.00,,,0.00,Wunderground v.1.15,2013-06-16 01:05:00,
2013-06-15 21:15:00,71.8,65.7,30.06,SW,228,0.0,0.0,81,0.00,,,0.00,Wunderground v.1.15,2013-06-16 01:15:00,
2013-06-15 21:25:00,71.1,65.0,30.06,SW,228,0.0,0.0,81,0.00,,,0.00,Wunderground v.1.15,2013-06-16 01:25:00,
2013-06-15 21:30:00,70.8,65.0,30.06,SW,228,0.0,0.0,82,0.00,,,0.00,Wunderground v.1.15,2013-06-16 01:30:00,
2013-06-15 21:35:00,70.4,64.6,30.06,SW,228,0.0,0.0,82,0.00,,,0.00,Wunderground v.1.15,2013-06-16 01:35:00,
2013-06-15 21:40:00,70.1,64.7,30.06,SW,228,0.0,0.0,83,0.00,,,0.00,Wunderground v.1.15,2013-06-16 01:40:00,
2013-06-15 21:50:00,69.5,64.5,30.07,SW,228,0.0,0.0,84,0.00,,,0.00,Wunderground v.1.15,2013-06-16 01:50:00,
2013-06-15 21:55:00,69.2,64.5,30.06,SW,228,0.0,0.0,85,0.00,,,0.00,Wunderground v.1.15,2013-06-16 01:55:00,
2013-06-15 22:00:00,68.9,64.2,30.07,SW,228,0.0,0.0,85,0.00,,,0.00,Wunderground v.1.15,2013-06-16 02:00:00,
2013-06-15 22:05:00,68.7,64.7,30.07,SW,228,0.0,0.0,87,0.00,,,0.00,Wunderground v.1.15,2013-06-16 02:05:00,
2013-06-15 22:15:00,68.2,64.2,30.07,SW,228,0.0,0.0,87,0.00,,,0.00,Wunderground v.1.15,2013-06-16 02:15:00,
2013-06-15 22:20:00,67.9,64.2,30.07,SW,228,0.0,0.0,88,0.00,,,0.00,Wunderground v.1.15,2013-06-16 02:20:00,
2013-06-15 22:25:00,67.7,64.0,30.07,SW,228,0.0,0.0,88,0.00,,,0.00,Wunderground v.1.15,2013-06-16 02:25:00,
2013-06-15 22:30:00,67.5,63.8,30.07,SW,228,0.0,0.0,88,0.00,,,0.00,Wunderground v.1.15,2013-06-16 02:30:00,
2013-06-15 22:40:00,67.0,63.6,30.07,SW,228,0.0,0.0,89,0.00,,,0.00,Wunderground v.1.15,2013-06-16 02:40:00,
2013-06-15 22:45:00,66.8,63.5,30.07,SW,228,0.0,0.0,89,0.00,,,0.00,Wunderground v.1.15,2013-06-16 02:45:00,
2013-06-15 22:50:00,66.7,63.4,30.07,SW,228,0.0,0.0,89,0.00,,,0.00,Wunderground v.1.15,2013-06-16 02:50:00,
2013-06-15 22:55:00,66.5,63.5,30.07,SW,228,0.0,0.0,90,0.00,,,0.00,Wunderground v.1.15,2013-06-16 02:55:00,
2013-06-15 23:00:00,66.3,63.3,30.07,SW,228,0.0,0.0,90,0.00,,,0.00,Wunderground v.1.15,2013-06-16 03:00:00,
2013-06-15 23:05:00,66.1,63.1,30.07,SW,228,0.0,0.0,90,0.00,,,0.00,Wunderground v.1.15,2013-06-16 03:05:00,
2013-06-15 23:15:00,65.8,63.1,30.07,SW,228,0.0,0.0,91,0.00,,,0.00,Wunderground v.1.15,2013-06-16 03:15:00,
2013-06-15 23:25:00,65.5,62.8,30.07,SW,228,0.0,0.0,91,0.00,,,0.00,Wunderground v.1.15,2013-06-16 03:25:00,
2013-06-15 23:30:00,65.4,62.7,30.07,SW,228,0.0,0.0,91,0.00,,,0.00,Wunderground v.1.15,2013-06-16 03:30:00,
2013-06-15 23:35:00,65.2,62.8,30.07,SW,228,0.0,0.0,92,0.00,,,0.00,Wunderground v.1.15,2013-06-16 03:35:00,
2013-06-15 23:40:00,65.1,62.7,30.08,SW,228,0.0,0.0,92,0.00,,,0.00,Wunderground v.1.15,2013-06-16 03:40:00,
2013-06-15 23:45:00,65.0,62.6,30.08,SW,228,0.0,0.0,92,0.00,,,0.00,Wunderground v.1.15,2013-06-16 03:45:00,
2013-06-15 23:55:00,64.7,62.6,30.08,SW,228,0.0,0.0,93,0.00,,,0.00,Wunderground v.1.15,2013-06-16 03:55:00,